Station Historical Data
Daily Summary for March 2, 2018 Units:  Metric    English   Both
« Previous Day
Next Day »
Daily Weekly Monthly Yearly Custom
  High: Low: Average:
Temperature: 1.6 °C -1.4 °C -0.3 °C
Dew Point: -1.7 °C -6.1 °C -3.4 °C
Humidity: 92% 67% 80%
Wind Speed: 27.4km/h 0km/h 9km/h
Wind Gust: 30.6km/h - -
Wind- - West
Pressure: 1026 hPa 1005 hPa -
Precipitation: 0 mm    
Historical Graphs
 
 
Tabular Data for March 2, 2018
Time Temperature Dew Point Pressure Wind Wind Speed Wind Gust Humidity Rainfall Rate (Hourly)
00:04 -0.3 °C -1.8 °C 1005 hPa NE 11.3 km/h 19.3 km/h 90% 0 mm
00:09 -0.3 °C -1.8 °C 1005 hPa NE 8 km/h 24.1 km/h 90% 0 mm
00:14 -0.4 °C -1.7 °C 1005 hPa NNE 16.1 km/h 19.3 km/h 91% 0 mm
00:19 -0.4 °C -1.7 °C 1005 hPa NNE 12.9 km/h 30.6 km/h 91% 0 mm
00:24 -0.4 °C -1.7 °C 1005 hPa NNE 27.4 km/h 27.4 km/h 91% 0 mm
00:29 -0.5 °C -1.8 °C 1005.3 hPa NE 8 km/h 24.1 km/h 91% 0 mm
00:34 -0.5 °C -1.8 °C 1005.3 hPa NNE 12.9 km/h 27.4 km/h 91% 0 mm
00:39 -0.6 °C -1.8 °C 1005.3 hPa NNE 12.9 km/h 24.1 km/h 91% 0 mm
00:44 -0.6 °C -1.9 °C 1005.6 hPa NNE 14.5 km/h 24.1 km/h 91% 0 mm
00:49 -0.6 °C -1.9 °C 1005.6 hPa NNE 12.9 km/h 22.5 km/h 91% 0 mm
00:54 -0.6 °C -1.9 °C 1005.6 hPa NNE 12.9 km/h 22.5 km/h 91% 0 mm
00:59 -0.6 °C -1.9 °C 1005.6 hPa NNE 9.7 km/h 19.3 km/h 91% 0 mm
01:04 -0.7 °C -1.9 °C 1005.6 hPa NE 12.9 km/h 20.9 km/h 91% 0 mm
01:09 -0.7 °C -2 °C 1006 hPa NNE 11.3 km/h 20.9 km/h 91% 0 mm
01:14 -0.8 °C -2.1 °C 1006 hPa NNE 12.9 km/h 22.5 km/h 91% 0 mm
01:19 -0.8 °C -2.1 °C 1006 hPa NNE 8 km/h 16.1 km/h 91% 0 mm
01:24 -0.8 °C -2.1 °C 1006 hPa NNE 16.1 km/h 27.4 km/h 91% 0 mm
01:29 -0.9 °C -2.2 °C 1006.3 hPa NNW 16.1 km/h 20.9 km/h 91% 0 mm
01:34 -0.9 °C -2.2 °C 1006.3 hPa North 9.7 km/h 20.9 km/h 91% 0 mm
01:39 -0.9 °C -2.2 °C 1006.3 hPa NE 11.3 km/h 25.7 km/h 91% 0 mm
01:44 -0.9 °C -2.2 °C 1006.7 hPa NNE 12.9 km/h 25.7 km/h 91% 0 mm
01:49 -1 °C -2.3 °C 1006.7 hPa NNE 14.5 km/h 22.5 km/h 91% 0 mm
01:54 -0.9 °C -2.2 °C 1006.7 hPa NNE 11.3 km/h 22.5 km/h 91% 0 mm
01:59 -0.9 °C -2.2 °C 1007 hPa NNE 9.7 km/h 19.3 km/h 91% 0 mm
02:04 -0.9 °C -2.2 °C 1007 hPa NNE 9.7 km/h 19.3 km/h 91% 0 mm
02:09 -1 °C -2.3 °C 1007.3 hPa North 9.7 km/h 19.3 km/h 91% 0 mm
02:14 -1.1 °C -2.3 °C 1007.3 hPa NNE 12.9 km/h 22.5 km/h 91% 0 mm
02:19 -1.1 °C -2.3 °C 1007.7 hPa North 9.7 km/h 22.5 km/h 91% 0 mm
02:24 -1.1 °C -2.3 °C 1008 hPa North 19.3 km/h 25.7 km/h 91% 0 mm
02:29 -1.1 °C -2.4 °C 1008 hPa North 9.7 km/h 20.9 km/h 91% 0 mm
02:34 -1.1 °C -2.4 °C 1008 hPa NNE 8 km/h 24.1 km/h 91% 0 mm
02:39 -1.1 °C -2.4 °C 1008 hPa NNE 8 km/h 19.3 km/h 91% 0 mm
02:44 -1.1 °C -2.4 °C 1008.4 hPa NNW 11.3 km/h 19.3 km/h 91% 0 mm
02:49 -1.1 °C -2.4 °C 1008.4 hPa North 8 km/h 20.9 km/h 91% 0 mm
02:54 -1.2 °C -2.4 °C 1008.7 hPa North 9.7 km/h 20.9 km/h 91% 0 mm
02:59 -1.1 °C -2.4 °C 1008.7 hPa North 9.7 km/h 20.9 km/h 91% 0 mm
03:04 -1.2 °C -2.4 °C 1009 hPa North 9.7 km/h 17.7 km/h 91% 0 mm
03:09 -1.2 °C -2.4 °C 1009 hPa North 8 km/h 17.7 km/h 91% 0 mm
03:14 -1.2 °C -2.4 °C 1009 hPa North 9.7 km/h 20.9 km/h 91% 0 mm
03:19 -1.2 °C -2.4 °C 1009.4 hPa North 11.3 km/h 17.7 km/h 91% 0 mm
03:24 -1.2 °C -2.4 °C 1009.4 hPa North 9.7 km/h 19.3 km/h 91% 0 mm
03:29 -1.2 °C -2.3 °C 1009.4 hPa NNE 9.7 km/h 20.9 km/h 92% 0 mm
03:34 -1.2 °C -2.3 °C 1009.7 hPa North 11.3 km/h 22.5 km/h 92% 0 mm
03:39 -1.2 °C -2.3 °C 1009.7 hPa North 11.3 km/h 22.5 km/h 92% 0 mm
03:44 -1.2 °C -2.3 °C 1010 hPa North 9.7 km/h 27.4 km/h 92% 0 mm
03:49 -1.2 °C -2.3 °C 1010 hPa North 8 km/h 24.1 km/h 92% 0 mm
03:54 -1.2 °C -2.3 °C 1010 hPa NNE 12.9 km/h 17.7 km/h 92% 0 mm
03:59 -1.2 °C -2.3 °C 1010.4 hPa North 9.7 km/h 24.1 km/h 92% 0 mm
04:04 -1.2 °C -2.3 °C 1010.4 hPa North 9.7 km/h 24.1 km/h 92% 0 mm
04:09 -1.2 °C -2.3 °C 1010.7 hPa North 6.4 km/h 20.9 km/h 92% 0 mm
04:14 -1.2 °C -2.3 °C 1010.7 hPa North 6.4 km/h 20.9 km/h 92% 0 mm
04:19 -1.2 °C -2.3 °C 1010.7 hPa North 4.8 km/h 20.9 km/h 92% 0 mm
04:24 -1.3 °C -2.4 °C 1010.7 hPa North 9.7 km/h 20.9 km/h 92% 0 mm
04:34 -1.3 °C -2.4 °C 1011.1 hPa North 9.7 km/h 25.7 km/h 92% 0 mm
04:39 -1.3 °C -2.4 °C 1011.1 hPa NNW 8 km/h 25.7 km/h 92% 0 mm
04:44 -1.3 °C -2.4 °C 1011.4 hPa North 8 km/h 20.9 km/h 92% 0 mm
04:49 -1.3 °C -2.4 °C 1011.4 hPa North 9.7 km/h 20.9 km/h 92% 0 mm
04:54 -1.3 °C -2.6 °C 1011.7 hPa North 9.7 km/h 20.9 km/h 91% 0 mm
04:59 -1.3 °C -2.6 °C 1011.7 hPa NW 9.7 km/h 24.1 km/h 91% 0 mm
05:04 -1.4 °C -2.7 °C 1012.1 hPa NNW 8 km/h 17.7 km/h 91% 0 mm
05:09 -1.4 °C -2.7 °C 1012.1 hPa NNW 8 km/h 17.7 km/h 91% 0 mm
05:14 -1.4 °C -2.7 °C 1012.1 hPa NNW 8 km/h 17.7 km/h 91% 0 mm
05:19 -1.4 °C -2.7 °C 1012.4 hPa NW 1.6 km/h 19.3 km/h 91% 0 mm
05:24 -1.4 °C -2.7 °C 1012.4 hPa NNE 12.9 km/h 19.3 km/h 91% 0 mm
05:29 -1.4 °C -2.7 °C 1012.8 hPa NNW 6.4 km/h 16.1 km/h 91% 0 mm
05:34 -1.4 °C -2.7 °C 1012.8 hPa North 12.9 km/h 25.7 km/h 91% 0 mm
05:39 -1.4 °C -2.7 °C 1012.8 hPa North 14.5 km/h 19.3 km/h 91% 0 mm
05:44 -1.4 °C -2.7 °C 1013.1 hPa North 9.7 km/h 19.3 km/h 91% 0 mm
05:49 -1.4 °C -2.7 °C 1013.1 hPa North 8 km/h 16.1 km/h 91% 0 mm
05:54 -1.4 °C -2.7 °C 1013.4 hPa NNW 8 km/h 16.1 km/h 91% 0 mm
05:59 -1.4 °C -2.7 °C 1013.4 hPa North 9.7 km/h 19.3 km/h 91% 0 mm
06:04 -1.4 °C -2.7 °C 1013.4 hPa North 8 km/h 19.3 km/h 91% 0 mm
06:09 -1.4 °C -2.7 °C 1013.4 hPa NNW 4.8 km/h 14.5 km/h 91% 0 mm
06:14 -1.4 °C -2.7 °C 1013.4 hPa NNW 4.8 km/h 14.5 km/h 91% 0 mm
06:19 -1.4 °C -2.7 °C 1013.8 hPa NNW 8 km/h 14.5 km/h 91% 0 mm
06:24 -1.4 °C -2.7 °C 1013.8 hPa NNW 8 km/h 14.5 km/h 91% 0 mm
06:29 -1.4 °C -2.7 °C 1014.1 hPa North 4.8 km/h 11.3 km/h 91% 0 mm
06:34 -1.4 °C -2.7 °C 1014.1 hPa North 11.3 km/h 14.5 km/h 91% 0 mm
06:39 -1.4 °C -2.7 °C 1014.1 hPa NNE 16.1 km/h 17.7 km/h 91% 0 mm
06:44 -1.4 °C -2.7 °C 1014.1 hPa North 8 km/h 16.1 km/h 91% 0 mm
06:49 -1.4 °C -2.7 °C 1014.1 hPa NNE 8 km/h 16.1 km/h 91% 0 mm
06:54 -1.4 °C -2.7 °C 1014.4 hPa NNW 8 km/h 17.7 km/h 91% 0 mm
06:59 -1.4 °C -2.7 °C 1014.4 hPa North 8 km/h 17.7 km/h 91% 0 mm
07:04 -1.4 °C -2.7 °C 1014.4 hPa NNW 6.4 km/h 16.1 km/h 91% 0 mm
07:09 -1.4 °C -2.7 °C 1014.8 hPa NNW 6.4 km/h 16.1 km/h 91% 0 mm
07:14 -1.4 °C -2.7 °C 1014.8 hPa NNW 6.4 km/h 14.5 km/h 91% 0 mm
07:19 -1.4 °C -2.7 °C 1014.8 hPa North 6.4 km/h 12.9 km/h 91% 0 mm
07:24 -1.3 °C -2.6 °C 1015.1 hPa North 1.6 km/h 12.9 km/h 91% 0 mm
07:29 -1.3 °C -2.6 °C 1015.1 hPa NNW 6.4 km/h 17.7 km/h 91% 0 mm
07:34 -1.3 °C -2.6 °C 1015.1 hPa NNW 6.4 km/h 17.7 km/h 91% 0 mm
07:39 -1.4 °C -2.7 °C 1015.5 hPa North 6.4 km/h 11.3 km/h 91% 0 mm
07:44 -1.4 °C -2.7 °C 1015.5 hPa NNW 8 km/h 19.3 km/h 91% 0 mm
07:49 -1.4 °C -2.7 °C 1015.5 hPa NNE 9.7 km/h 19.3 km/h 91% 0 mm
07:54 -1.4 °C -2.7 °C 1015.5 hPa North 11.3 km/h 19.3 km/h 91% 0 mm
07:59 -1.3 °C -2.6 °C 1015.8 hPa WNW 14.5 km/h 14.5 km/h 91% 0 mm
08:04 -1.3 °C -2.6 °C 1015.8 hPa NNW 9.7 km/h 17.7 km/h 91% 0 mm
08:09 -1.3 °C -2.6 °C 1015.8 hPa NNW 9.7 km/h 20.9 km/h 91% 0 mm
08:14 -1.2 °C -2.5 °C 1015.8 hPa NNW 8 km/h 20.9 km/h 91% 0 mm
08:19 -1.2 °C -2.4 °C 1015.8 hPa NNW 8 km/h 19.3 km/h 91% 0 mm
08:24 -1.1 °C -2.4 °C 1015.8 hPa NNW 6.4 km/h 12.9 km/h 91% 0 mm
08:29 -1.1 °C -2.3 °C 1016.1 hPa NNW 6.4 km/h 14.5 km/h 91% 0 mm
08:34 -1.1 °C -2.3 °C 1016.1 hPa NNW 9.7 km/h 19.3 km/h 91% 0 mm
08:39 -1.1 °C -2.5 °C 1016.1 hPa NNW 8 km/h 19.3 km/h 90% 0 mm
08:44 -0.9 °C -2.4 °C 1016.1 hPa North 6.4 km/h 12.9 km/h 90% 0 mm
08:49 -0.8 °C -2.3 °C 1016.1 hPa NNW 6.4 km/h 12.9 km/h 90% 0 mm
08:54 -0.7 °C -2.2 °C 1016.5 hPa North 6.4 km/h 14.5 km/h 90% 0 mm
08:59 -0.7 °C -2.1 °C 1016.5 hPa North 3.2 km/h 17.7 km/h 90% 0 mm
09:04 -0.6 °C -2.1 °C 1016.5 hPa NW 8 km/h 16.1 km/h 90% 0 mm
09:09 -0.6 °C -2.2 °C 1016.8 hPa NNW 8 km/h 12.9 km/h 89% 0 mm
09:14 -0.6 °C -2.2 °C 1016.8 hPa NNW 6.4 km/h 12.9 km/h 89% 0 mm
09:19 -0.6 °C -2.2 °C 1016.8 hPa NNW 4.8 km/h 12.9 km/h 89% 0 mm
09:24 -0.5 °C -2.2 °C 1016.8 hPa NNW 4.8 km/h 11.3 km/h 88% 0 mm
09:29 -0.4 °C -2.2 °C 1016.8 hPa NW 4.8 km/h 11.3 km/h 88% 0 mm
09:34 -0.3 °C -2.1 °C 1017.2 hPa NW 3.2 km/h 9.7 km/h 88% 0 mm
09:39 -0.3 °C -2.2 °C 1017.2 hPa NW 3.2 km/h 16.1 km/h 87% 0 mm
09:44 -0.2 °C -2.2 °C 1017.2 hPa North 1.6 km/h 9.7 km/h 86% 0 mm
09:49 -0.1 °C -2.1 °C 1017.2 hPa NNW 4.8 km/h 9.7 km/h 86% 0.25 mm
09:54 0 °C -2.2 °C 1017.2 hPa North 9.7 km/h 17.7 km/h 85% 0.25 mm
09:59 0.1 °C -2.3 °C 1017.5 hPa NW 4.8 km/h 16.1 km/h 84% 0.25 mm
10:04 0 °C -2.6 °C 1017.5 hPa NW 8 km/h 17.7 km/h 83% 0.25 mm
10:09 0 °C -2.7 °C 1017.5 hPa NW 11.3 km/h 19.3 km/h 82% 0.25 mm
10:14 0 °C -2.9 °C 1017.8 hPa NW 6.4 km/h 16.1 km/h 81% 0.25 mm
10:19 0.1 °C -2.8 °C 1017.8 hPa NW 4.8 km/h 14.5 km/h 81% 0.25 mm
10:24 0.1 °C -3 °C 1017.8 hPa NNW 8 km/h 22.5 km/h 80% 0.25 mm
10:29 0.2 °C -3 °C 1017.8 hPa NNW 8 km/h 22.5 km/h 79% 0.25 mm
10:34 0.3 °C -2.9 °C 1018.2 hPa NNW 9.7 km/h 17.7 km/h 79% 0.25 mm
10:39 0.3 °C -2.9 °C 1018.2 hPa NNW 8 km/h 16.1 km/h 79% 0.25 mm
10:44 0.3 °C -3.1 °C 1018.2 hPa North 6.4 km/h 19.3 km/h 78% 0.25 mm
10:49 0.3 °C -3.2 °C 1018.2 hPa North 6.4 km/h 20.9 km/h 77% 0 mm
10:54 0.4 °C -3.2 °C 1018.2 hPa NNW 9.7 km/h 20.9 km/h 77% 0 mm
10:59 0.4 °C -3.2 °C 1018.5 hPa NNW 9.7 km/h 20.9 km/h 77% 0 mm
11:04 0.4 °C -3.2 °C 1018.5 hPa Calm   16.1 km/h 77% 0.51 mm
11:09 0.4 °C -2.9 °C 1018.5 hPa North 9.7 km/h 19.3 km/h 78% 0.51 mm
11:14 0.4 °C -3 °C 1018.5 hPa NW 6.4 km/h 16.1 km/h 78% 0.51 mm
11:19 0.2 °C -3.5 °C 1018.5 hPa North 4.8 km/h 20.9 km/h 76% 0.51 mm
11:24 0.3 °C -3.4 °C 1018.8 hPa North 19.3 km/h 19.3 km/h 76% 0.51 mm
11:29 0.4 °C -3.3 °C 1018.8 hPa NNW 9.7 km/h 22.5 km/h 76% 0.51 mm
11:34 0.6 °C -3.2 °C 1018.8 hPa North 9.7 km/h 22.5 km/h 76% 0.51 mm
11:39 0.7 °C -3.3 °C 1018.8 hPa North 9.7 km/h 19.3 km/h 75% 0.51 mm
11:44 0.7 °C -3.3 °C 1018.8 hPa NNW 9.7 km/h 20.9 km/h 75% 0.51 mm
11:49 0.6 °C -3.4 °C 1018.8 hPa NNW 9.7 km/h 20.9 km/h 75% 0.76 mm
11:54 0.6 °C -3.4 °C 1018.8 hPa NNW 9.7 km/h 24.1 km/h 75% 0.76 mm
11:59 0.6 °C -3.6 °C 1018.8 hPa NNW 8 km/h 27.4 km/h 74% 0.76 mm
12:04 0.6 °C -3.6 °C 1019.2 hPa NNW 9.7 km/h 27.4 km/h 74% 0.25 mm
12:09 0.7 °C -3.4 °C 1019.2 hPa NNW 9.7 km/h 22.5 km/h 74% 0.25 mm
12:14 0.8 °C -3.3 °C 1019.2 hPa NNW 9.7 km/h 22.5 km/h 74% 0.25 mm
12:19 0.8 °C -3.3 °C 1019.2 hPa NW 6.4 km/h 24.1 km/h 74% 0.25 mm
12:24 0.7 °C -3.4 °C 1019.2 hPa NNW 12.9 km/h 16.1 km/h 74% 0.51 mm
12:29 0.7 °C -3.3 °C 1019.2 hPa NW 14.5 km/h 24.1 km/h 75% 0.51 mm
12:34 0.7 °C -3.2 °C 1019.2 hPa North 6.4 km/h 19.3 km/h 75% 0.51 mm
12:39 0.7 °C -3.2 °C 1019.2 hPa NNW 4.8 km/h 17.7 km/h 75% 0.51 mm
12:49 0.9 °C -3.2 °C 1019.2 hPa NNW 8 km/h 17.7 km/h 74% 0.25 mm
12:54 0.8 °C -3.3 °C 1019.2 hPa NNW 9.7 km/h 24.1 km/h 74% 0.25 mm
12:59 0.8 °C -3.3 °C 1019.2 hPa NNW 8 km/h 24.1 km/h 74% 0.25 mm
13:04 0.9 °C -3 °C 1019.5 hPa NW 3.2 km/h 16.1 km/h 75% 0.51 mm
13:09 1.1 °C -3.1 °C 1019.5 hPa NNW 8 km/h 17.7 km/h 74% 0.51 mm
13:19 0.8 °C -3.7 °C 1019.5 hPa NNW 12.9 km/h 29 km/h 72% 0.51 mm
13:24 0.8 °C -3.7 °C 1019.5 hPa NNW 12.9 km/h 29 km/h 72% 0.25 mm
13:29 0.8 °C -3.8 °C 1019.5 hPa NNW 11.3 km/h 25.7 km/h 71% 0.25 mm
13:34 0.9 °C -3.7 °C 1019.5 hPa North 12.9 km/h 20.9 km/h 71% 0.25 mm
13:39 0.9 °C -3.9 °C 1019.5 hPa NW 8 km/h 20.9 km/h 70% 0.25 mm
13:44 1.1 °C -3.8 °C 1019.9 hPa North 8 km/h 24.1 km/h 70% 0.25 mm
13:49 1.3 °C -3.7 °C 1019.9 hPa NNW 11.3 km/h 24.1 km/h 69% 0.25 mm
13:54 1.6 °C -3.4 °C 1019.9 hPa North 11.3 km/h 27.4 km/h 69% 0.25 mm
13:59 1.3 °C -3.9 °C 1019.9 hPa North 11.3 km/h 27.4 km/h 68% 0.51 mm
14:04 1.2 °C -4.1 °C 1019.9 hPa North 11.3 km/h 22.5 km/h 68% 0.25 mm
14:09 1.3 °C -3.6 °C 1019.9 hPa NNW 8 km/h 19.3 km/h 70% 0.25 mm
14:14 1.4 °C -3.8 °C 1020.2 hPa NNW 4.8 km/h 14.5 km/h 68% 0.25 mm
14:19 1.5 °C -3.9 °C 1020.2 hPa North 11.3 km/h 17.7 km/h 67% 0.25 mm
14:24 1.4 °C -4 °C 1020.2 hPa NNW 9.7 km/h 20.9 km/h 67% 0.25 mm
14:29 1.3 °C -4.1 °C 1020.2 hPa NNW 17.7 km/h 22.5 km/h 67% 0.51 mm
14:34 1.3 °C -4.1 °C 1020.2 hPa NNW 6.4 km/h 25.7 km/h 67% 0.51 mm
14:39 1.3 °C -4.2 °C 1020.2 hPa NNW 12.9 km/h 20.9 km/h 67% 0.51 mm
14:44 1.3 °C -4.2 °C 1020.5 hPa North 8 km/h 24.1 km/h 67% 0.51 mm
14:49 1.2 °C -4.1 °C 1020.5 hPa NNE 8 km/h 22.5 km/h 68% 0.51 mm
14:54 1.2 °C -4.1 °C 1020.5 hPa NNW 11.3 km/h 20.9 km/h 68% 0.51 mm
14:59 1.2 °C -4.1 °C 1020.5 hPa North 9.7 km/h 20.9 km/h 68% 0.25 mm
15:04 1.3 °C -3.8 °C 1020.9 hPa NNW 8 km/h 17.7 km/h 69% 0.51 mm
15:09 1.3 °C -4.2 °C 1020.9 hPa NNW 8 km/h 24.1 km/h 67% 0.51 mm
15:14 1.3 °C -4.2 °C 1020.9 hPa NW 14.5 km/h 22.5 km/h 67% 0.51 mm
15:19 1.3 °C -4.2 °C 1021.2 hPa NNW 4.8 km/h 27.4 km/h 67% 0.51 mm
15:29 1.3 °C -4.1 °C 1021.2 hPa North 8 km/h 17.7 km/h 67% 0.25 mm
15:34 1.3 °C -3.9 °C 1021.2 hPa NNW 8 km/h 17.7 km/h 68% 0.25 mm
15:39 1.3 °C -4 °C 1021.2 hPa NNW 8 km/h 19.3 km/h 68% 0.51 mm
15:44 1.3 °C -4 °C 1021.2 hPa NNW 8 km/h 19.3 km/h 68% 0.51 mm
15:49 1.3 °C -4 °C 1021.6 hPa NNE 9.7 km/h 20.9 km/h 68% 0.51 mm
15:54 1.2 °C -4.1 °C 1021.6 hPa North 8 km/h 20.9 km/h 68% 0.51 mm
15:59 1.2 °C -3.8 °C 1021.6 hPa NW 3.2 km/h 14.5 km/h 69% 0.51 mm
16:04 1.2 °C -4.1 °C 1021.6 hPa NNW 14.5 km/h 19.3 km/h 68% 0.25 mm
16:14 1.2 °C -3.9 °C 1021.6 hPa NNW 8 km/h 17.7 km/h 69% 0.25 mm
16:19 1.3 °C -3.8 °C 1021.9 hPa NNW 8 km/h 16.1 km/h 69% 0.25 mm
16:24 1.4 °C -3.4 °C 1021.9 hPa NNW 8 km/h 14.5 km/h 70% 0.51 mm
16:29 1.6 °C -3.3 °C 1021.9 hPa NNW 4.8 km/h 14.5 km/h 70% 0.51 mm
16:34 1.5 °C -3.6 °C 1021.9 hPa NNW 6.4 km/h 19.3 km/h 69% 0.51 mm
16:39 1.4 °C -3.6 °C 1022.2 hPa NW 8 km/h 12.9 km/h 69% 0.25 mm
16:44 1.4 °C -3.7 °C 1022.2 hPa WNW 16.1 km/h 25.7 km/h 69% 0.25 mm
16:49 1.2 °C -3.7 °C 1022.2 hPa NW 12.9 km/h 24.1 km/h 70% 0.25 mm
16:54 1.1 °C -3.6 °C 1022.6 hPa NW 12.9 km/h 20.9 km/h 71% 0.25 mm
16:59 0.9 °C -3.8 °C 1022.6 hPa NNW 8 km/h 17.7 km/h 71% 0.25 mm
17:04 0.9 °C -3.6 °C 1022.6 hPa NNW 6.4 km/h 17.7 km/h 72% 0.25 mm
17:09 0.9 °C -3.6 °C 1022.9 hPa NNW 8 km/h 27.4 km/h 72% 0.25 mm
17:14 0.8 °C -3.8 °C 1022.9 hPa WNW 8 km/h 24.1 km/h 71% 0.51 mm
17:19 0.8 °C -3.7 °C 1022.9 hPa NW 11.3 km/h 24.1 km/h 72% 0.51 mm
17:24 0.7 °C -3.8 °C 1023.2 hPa NW 11.3 km/h 24.1 km/h 72% 0.25 mm
17:29 0.6 °C -3.8 °C 1023.2 hPa NW 11.3 km/h 24.1 km/h 72% 0.25 mm
17:34 0.5 °C -3.9 °C 1023.2 hPa NW 11.3 km/h 24.1 km/h 72% 0.25 mm
17:39 0.6 °C -3.9 °C 1023.6 hPa NNW 9.7 km/h 24.1 km/h 72% 0.25 mm
17:44 0.6 °C -3.9 °C 1023.6 hPa NNW 8 km/h 24.1 km/h 72% 0.25 mm
17:49 0.6 °C -3.9 °C 1023.6 hPa NNW 9.7 km/h 24.1 km/h 72% 0.25 mm
17:54 0.6 °C -3.9 °C 1023.6 hPa NNW 8 km/h 17.7 km/h 72% 0.25 mm
17:59 0.5 °C -3.9 °C 1023.9 hPa NNW 6.4 km/h 12.9 km/h 72% 0.25 mm
18:04 0.4 °C -4 °C 1023.9 hPa NNW 6.4 km/h 14.5 km/h 72% 0.25 mm
18:09 0.4 °C -4.1 °C 1023.9 hPa NNW 4.8 km/h 22.5 km/h 72% 0.25 mm
18:14 0.3 °C -4.1 °C 1023.9 hPa NW 3.2 km/h 12.9 km/h 72% 0 mm
18:19 0.3 °C -4.2 °C 1023.9 hPa WNW 9.7 km/h 16.1 km/h 72% 0 mm
18:24 0.2 °C -4.2 °C 1024.3 hPa WNW 14.5 km/h 20.9 km/h 72% 0 mm
18:29 0.2 °C -4.2 °C 1024.3 hPa NNW 9.7 km/h 20.9 km/h 72% 0 mm
18:34 0.2 °C -4.3 °C 1024.3 hPa NNW 9.7 km/h 20.9 km/h 72% 0 mm
18:39 0.2 °C -4.1 °C 1024.3 hPa North 11.3 km/h 27.4 km/h 73% 0 mm
18:44 0.1 °C -4.2 °C 1024.3 hPa NNW 9.7 km/h 27.4 km/h 73% 0 mm
18:49 0.1 °C -4.2 °C 1024.3 hPa NNW 8 km/h 19.3 km/h 73% 0.25 mm
18:54 0.1 °C -4.2 °C 1024.6 hPa NNW 4.8 km/h 20.9 km/h 73% 0.25 mm
18:59 0.1 °C -4.2 °C 1024.6 hPa WNW 12.9 km/h 12.9 km/h 73% 0.25 mm
19:04 0 °C -4.3 °C 1024.6 hPa NNW 8 km/h 19.3 km/h 73% 0.25 mm
19:09 -0.1 °C -4.3 °C 1024.6 hPa NNW 6.4 km/h 16.1 km/h 73% 0.25 mm
19:14 -0.1 °C -4.1 °C 1024.6 hPa North 6.4 km/h 19.3 km/h 74% 0.25 mm
19:19 -0.1 °C -4.3 °C 1024.9 hPa North 8 km/h 16.1 km/h 73% 0.25 mm
19:24 -0.1 °C -4.3 °C 1024.9 hPa NNW 8 km/h 19.3 km/h 73% 0.25 mm
19:29 -0.1 °C -4.3 °C 1024.9 hPa NNW 9.7 km/h 19.3 km/h 73% 0.25 mm
19:34 -0.1 °C -4.3 °C 1024.9 hPa NW 14.5 km/h 17.7 km/h 73% 0.25 mm
19:39 -0.1 °C -4.4 °C 1024.9 hPa NNW 8 km/h 24.1 km/h 73% 0.25 mm
19:44 -0.1 °C -4.5 °C 1024.9 hPa NNW 9.7 km/h 25.7 km/h 72% 0.25 mm
19:49 -0.1 °C -4.6 °C 1024.9 hPa NNW 9.7 km/h 25.7 km/h 72% 0 mm
19:54 -0.2 °C -4.4 °C 1024.9 hPa NNW 9.7 km/h 24.1 km/h 73% 0 mm
19:59 -0.2 °C -4.4 °C 1025.3 hPa North 16.1 km/h 19.3 km/h 73% 0 mm
20:04 -0.2 °C -4.6 °C 1025.3 hPa NW 9.7 km/h 16.1 km/h 72% 0 mm
20:09 -0.2 °C -4.4 °C 1025.3 hPa NW 1.6 km/h 14.5 km/h 73% 0 mm
20:14 -0.2 °C -4.4 °C 1025.3 hPa NNW 8 km/h 17.7 km/h 73% 0 mm
20:19 -0.2 °C -4.5 °C 1025.3 hPa NNW 8 km/h 17.7 km/h 73% 0 mm
20:24 -0.2 °C -4.5 °C 1025.3 hPa NNW 9.7 km/h 17.7 km/h 73% 0 mm
20:29 -0.3 °C -4.6 °C 1025.3 hPa North 9.7 km/h 20.9 km/h 73% 0 mm
20:34 -0.3 °C -4.6 °C 1025.3 hPa NNW 8 km/h 20.9 km/h 73% 0 mm
20:39 -0.4 °C -4.7 °C 1025.3 hPa NNW 6.4 km/h 17.7 km/h 73% 0 mm
20:44 -0.4 °C -4.7 °C 1025.3 hPa North 11.3 km/h 16.1 km/h 73% 0 mm
20:49 -0.6 °C -4.8 °C 1025.6 hPa North 6.4 km/h 16.1 km/h 73% 0 mm
20:54 -0.6 °C -4.8 °C 1025.6 hPa North 8 km/h 22.5 km/h 73% 0 mm
20:59 -0.7 °C -5.1 °C 1025.6 hPa North 4.8 km/h 20.9 km/h 72% 0 mm
21:04 -0.8 °C -5.2 °C 1025.6 hPa NW 8 km/h 17.7 km/h 72% 0 mm
21:09 -0.8 °C -5.3 °C 1025.6 hPa North 8 km/h 17.7 km/h 72% 0 mm
21:14 -0.8 °C -5.2 °C 1025.6 hPa North 6.4 km/h 27.4 km/h 72% 0 mm
21:19 -0.8 °C -5.4 °C 1025.6 hPa NNW 8 km/h 27.4 km/h 71% 0 mm
21:24 -0.8 °C -5.4 °C 1025.6 hPa North 8 km/h 20.9 km/h 71% 0 mm
21:29 -0.9 °C -5.5 °C 1025.6 hPa North 8 km/h 16.1 km/h 71% 0 mm
21:34 -0.9 °C -5.5 °C 1025.6 hPa North 8 km/h 16.1 km/h 71% 0 mm
21:39 -1.1 °C -5.7 °C 1025.6 hPa NNW 8 km/h 16.1 km/h 71% 0 mm
21:44 -1.1 °C -5.7 °C 1025.6 hPa North 14.5 km/h 24.1 km/h 71% 0 mm
21:49 -1 °C -5.6 °C 1025.6 hPa NNW 8 km/h 22.5 km/h 71% 0 mm
21:54 -0.9 °C -5.6 °C 1025.6 hPa North 9.7 km/h 22.5 km/h 71% 0 mm
21:59 -0.9 °C -5.6 °C 1025.6 hPa NNW 12.9 km/h 17.7 km/h 71% 0 mm
22:04 -0.9 °C -5.5 °C 1025.6 hPa NNW 9.7 km/h 16.1 km/h 71% 0 mm
22:09 -0.9 °C -5.6 °C 1025.6 hPa North 14.5 km/h 16.1 km/h 71% 0 mm
22:14 -0.9 °C -5.6 °C 1025.6 hPa North 14.5 km/h 22.5 km/h 71% 0 mm
22:19 -0.9 °C -5.6 °C 1025.6 hPa North 3.2 km/h 19.3 km/h 71% 0 mm
22:24 -0.9 °C -5.6 °C 1025.6 hPa NNW 11.3 km/h 22.5 km/h 71% 0 mm
22:29 -0.9 °C -5.7 °C 1025.6 hPa NNW 8 km/h 22.5 km/h 70% 0 mm
22:34 -0.9 °C -5.7 °C 1025.6 hPa NNW 9.7 km/h 22.5 km/h 70% 0 mm
22:39 -0.9 °C -5.7 °C 1025.6 hPa NNW 9.7 km/h 22.5 km/h 70% 0 mm
22:44 -0.9 °C -5.7 °C 1026 hPa NNW 9.7 km/h 20.9 km/h 70% 0 mm
22:49 -0.9 °C -5.7 °C 1026 hPa North 9.7 km/h 20.9 km/h 70% 0 mm
22:54 -1 °C -5.8 °C 1026 hPa NNW 8 km/h 20.9 km/h 70% 0 mm
22:59 -1.1 °C -5.8 °C 1026 hPa NNW 4.8 km/h 17.7 km/h 70% 0 mm
23:04 -1.1 °C -5.8 °C 1026 hPa NNW 8 km/h 17.7 km/h 70% 0 mm
23:09 -1.1 °C -5.8 °C 1026 hPa North 9.7 km/h 24.1 km/h 70% 0 mm
23:14 -1.1 °C -5.8 °C 1026 hPa NNE 8 km/h 17.7 km/h 70% 0 mm
23:19 -1.1 °C -5.8 °C 1026 hPa NNW 8 km/h 17.7 km/h 70% 0 mm
23:24 -1.1 °C -5.8 °C 1026 hPa NW 8 km/h 16.1 km/h 70% 0 mm
23:29 -1.1 °C -5.8 °C 1026 hPa North 4.8 km/h 20.9 km/h 70% 0 mm
23:34 -1.1 °C -6 °C 1026 hPa NNE 8 km/h 24.1 km/h 69% 0 mm
23:39 -1.1 °C -6.1 °C 1026 hPa North 9.7 km/h 24.1 km/h 69% 0 mm
23:44 -1.1 °C -5.9 °C 1026 hPa NNW 8 km/h 17.7 km/h 70% 0 mm
23:49 -1.1 °C -5.8 °C 1026 hPa NNW 8 km/h 17.7 km/h 70% 0 mm
23:54 -1.1 °C -5.9 °C 1026 hPa NNW 6.4 km/h 14.5 km/h 70% 0 mm
23:59 -1.2 °C -5.9 °C 1026 hPa NNW 6.4 km/h 16.1 km/h 70% 0 mm
Buffalo, New York, USA
Compliments of Weather Underground - 2.5 mb